Weather Service Report


322 
ASUS42 KRAH 241710
RWRRAH
NORTH CAROLINA WEATHER ROUNDUP
NATIONAL WEATHER SERVICE RALEIGH NC
100 PM EDT FRI MAR 24 2017

NOTE: "FAIR" INDICATES FEW OR NO CLOUDS BELOW 12,000 FEET WITH NO
SIGNIFICANT WEATHER AND/OR OBSTRUCTIONS TO VISIBILITY.

NCZ001-053-055-056-065-067-241800-
WESTERN NORTH CAROLINA
  
CITY           SKY/WX    TMP DP  RH WIND       PRES   REMARKS
ASHEVILLE      PTSUNNY   57  45  64 S15G23    30.45F                  
JEFFERSON      CLOUDY    56  40  53 SE9       30.39F                  
MORGANTON      SUNNY     64  44  47 S14G21    30.47F                  
HICKORY        CLOUDY    60  44  55 SW13G23   30.44F                  
RUTHERFORDTON  CLOUDY    60  45  56 S14G20    30.46F                  
MOUNT AIRY     CLOUDY    59  43  55 SW8G16    30.45F                  
BOONE          MOSUNNY   56  35  45 SW7       30.42F                  
$$
 
NCZ021-022-025-041-071-084-088-241800-
CENTRAL NORTH CAROLINA
  
CITY           SKY/WX    TMP DP  RH WIND       PRES   REMARKS
CHARLOTTE      MOSUNNY   63  43  48 SW8       30.48F                  
GREENSBORO     CLOUDY    57  41  55 SW15      30.46F                  
WINSTON-SALEM  CLOUDY    58  38  47 S8G20     30.47F                  
RALEIGH-DURHAM PTSUNNY   65  43  44 SW15      30.47F                  
FORT BRAGG     SUNNY     68  45  44 S12       30.46F                  
FAYETTEVILLE   SUNNY     70  46  42 S16       30.47F                  
BURLINGTON     CLOUDY    62  42  47 SW15      30.45F                  
LAURINBURG     SUNNY     69  47  45 SW15      30.48F                  
$$
 
NCZ011-015-027-028-043-044-047-080-103-241800-
NORTHEASTERN NORTH CAROLINA
  
CITY           SKY/WX    TMP DP  RH WIND       PRES   REMARKS
ROCKY MT-WILSO SUNNY     65  45  48 S10G23    30.48F                  
GREENVILLE     SUNNY     68  43  40 SW10      30.48F                  
WASHINGTON     SUNNY     66  43  42 SW12G17   30.49F                  
ELIZABETH CITY SUNNY     62  40  44 S12       30.50F                  
MANTEO         SUNNY     61  45  56 S9        30.50F                  
CAPE HATTERAS  SUNNY     65  45  48 SW9       30.51F                  
$$
 
NCZ078-087-090-091-093-098-101-241800-
SOUTHEASTERN NORTH CAROLINA
  
CITY           SKY/WX    TMP DP  RH WIND       PRES   REMARKS
LUMBERTON      SUNNY     69  45  41 SW12      30.47F                  
GOLDSBORO      SUNNY     68  44  40 SW14G20   30.46F                  
KINSTON        SUNNY     68  41  37 SW8       30.49F                  
KENANSVILLE    SUNNY     68  43  40 W7G20     30.48F                  
NEW BERN       MOSUNNY   69  45  41 SW12G22   30.50F                  
CHERRY POINT   MOSUNNY   67  46  46 SW12G21   30.50F                  
BEAUFORT       SUNNY     67  47  48 S10       30.51F                  
JACKSONVILLE   NOT AVBL                                               
WILMINGTON     SUNNY     69  46  43 SW9G20    30.49F                  
$$

  

Return to Home page


Western Regional Climate Center, wrcc@dri.edu